Fort Rucker / Ozark, AL

12:50 PM CDT on April 27, 2017 (GMT -0500)
Fort Rucker / Ozark

Weather History for KLOR - June, 2013

Change the Weather History Date:

Sunday, June 16, 2013

  Actual Average (KOZR) Record (KOZR)
Temperature  
Mean Temperature 81 °F -  
Max Temperature 91 °F 85 °F 98 °F (1998)
Min Temperature 71 °F 66 °F 57 °F (2002)
Cooling Degree Days 16    
Growing Degree Days 31 (Base 50)    
Moisture  
Dew Point 71 °F    
Average Humidity 76    
Maximum Humidity 97    
Minimum Humidity 48    
Precipitation  
Precipitation 0.04 in - - ()
Sea Level Pressure  
Sea Level Pressure 30.04 in    
Wind  
Wind Speed 3 mph (South)    
Max Wind Speed 13 mph    
Max Gust Speed -    
Visibility 10 miles    
Events Rain , Thunderstorm    
Averages and records for this station are not official NWS values.
T = Trace of Precipitation, MM = Missing Value Source: NWS Daily Summary

Daily Weather History Graph

Daily Weather History Graph

Search for Another Location

Airport or City:

Trip Planner

Search our weather history database for the weather conditions in past years. The results will help you decide how hot, cold, wet, or windy it might be!

Date:

Astronomy

Jun. 16, 2013 Rise Set
Actual Time 5:38 AM CDT 7:49 PM CDT
Civil Twilight 5:10 AM CDT 8:17 PM CDT
Nautical Twilight 4:36 AM CDT 8:51 PM CDT
Astronomical Twilight 3:59 AM CDT 9:28 PM CDT
Moon 12:46 PM CDT (6/16) 12:18 AM CDT (6/16)
Length of Visible Light 15h 07m
Length of Day
14h 11m
Waxing Crescent, 50% of the Moon is Illuminated
Jun 16
Waxing Crescent
Jun 16
First Quarter
Jun 23
Full
Jun 29
Last Quarter
Jul 8
New

Hourly Weather History & Observations

Time (CDT) Temp. Heat Index Dew Point Humidity Pressure Visibility Wind Dir Wind Speed Gust Speed Precip Events Conditions
12:53 AM 75.0 °F - 66.9 °F 76% 30.04 in 10.0 mi Calm Calm - N/A   Overcast
1:53 AM 72.0 °F - 68.0 °F 87% 30.04 in 10.0 mi Calm Calm - N/A   Partly Cloudy
2:53 AM 72.0 °F - 68.0 °F 87% 30.04 in 10.0 mi Calm Calm - N/A   Partly Cloudy
3:24 AM 71.6 °F - 69.8 °F 94% 30.05 in 10.0 mi Calm Calm - N/A   Mostly Cloudy
3:53 AM 73.9 °F - 69.1 °F 85% 30.04 in 10.0 mi Calm Calm - N/A   Mostly Cloudy
4:53 AM 73.9 °F - 70.0 °F 87% 30.05 in 10.0 mi Variable 3.5 mph - N/A   Clear
5:53 AM 73.9 °F - 70.0 °F 87% 30.06 in 10.0 mi Calm Calm - N/A   Clear
6:53 AM 75.0 °F - 70.0 °F 84% 30.07 in 10.0 mi Calm Calm - N/A   Clear
7:53 AM 78.1 °F - 70.0 °F 76% 30.09 in 10.0 mi South 6.9 mph - N/A   Clear
8:53 AM 81.0 °F 84.9 °F 71.1 °F 72% 30.09 in 10.0 mi South 4.6 mph - N/A   Clear
9:53 AM 84.0 °F 89.6 °F 72.0 °F 67% 30.09 in 10.0 mi South 5.8 mph - N/A   Clear
10:53 AM 86.0 °F 93.0 °F 73.0 °F 65% 30.08 in 10.0 mi SSW 6.9 mph - N/A   Partly Cloudy
11:53 AM 88.0 °F 95.6 °F 73.0 °F 61% 30.06 in 10.0 mi SE 6.9 mph - N/A   Scattered Clouds
12:53 PM 88.0 °F 96.5 °F 73.9 °F 63% 30.05 in 10.0 mi Calm Calm - 0.01 in   Mostly Cloudy
1:53 PM 90.0 °F 96.9 °F 72.0 °F 55% 30.02 in 10.0 mi Variable 6.9 mph - N/A   Partly Cloudy
2:53 PM 91.0 °F 96.6 °F 70.0 °F 50% 30.00 in 10.0 mi Variable 4.6 mph - N/A   Mostly Cloudy
3:53 PM 91.0 °F 95.6 °F 69.1 °F 48% 29.99 in 10.0 mi SSW 6.9 mph - N/A   Partly Cloudy
4:53 PM 91.0 °F 97.6 °F 71.1 °F 52% 29.98 in 10.0 mi SSE 8.1 mph - N/A   Scattered Clouds
5:53 PM 84.9 °F 90.1 °F 71.1 °F 63% 29.99 in 10.0 mi South 5.8 mph - N/A   Partly Cloudy
6:44 PM 87.8 °F 93.8 °F 71.6 °F 58% 30.00 in 10.0 mi SSE 4.6 mph - N/A Thunderstorm Thunderstorm
6:53 PM 86.0 °F 91.5 °F 71.1 °F 61% 30.00 in 10.0 mi SW 8.1 mph - N/A Thunderstorm Thunderstorm
7:03 PM 84.2 °F 89.6 °F 71.6 °F 66% 30.01 in 10.0 mi SSW 12.7 mph - N/A   Overcast
7:22 PM 78.8 °F - 75.2 °F 89% 30.02 in 4.0 mi SW 8.1 mph - 0.02 in Rain , Thunderstorm Light Thunderstorms and Rain
7:53 PM 78.1 °F - 75.0 °F 90% 30.02 in 10.0 mi South 4.6 mph - 0.03 in Thunderstorm Thunderstorm
8:53 PM 75.9 °F - 73.0 °F 91% 30.03 in 10.0 mi South 9.2 mph - N/A Thunderstorm Thunderstorm
9:53 PM 75.0 °F - 73.9 °F 96% 30.04 in 10.0 mi Calm Calm - 0.00 in Thunderstorm Thunderstorm
10:02 PM 75.2 °F - 73.4 °F 94% 30.05 in 10.0 mi Calm Calm - N/A   Overcast
10:53 PM 75.9 °F - 73.9 °F 94% 30.03 in 9.0 mi SSW 4.6 mph - N/A   Mostly Cloudy
11:53 PM 75.9 °F - 75.0 °F 97% 30.03 in 7.0 mi Calm Calm - N/A   Mostly Cloudy